Regional Weather Roundup
Issued by NWS Memphis, TN

Home | Current Version | Previous Version | Text Only | Print | Product List | Glossary On
Versions: 1 2 3 4 5 6 7 8 9 10 11 12 13 14 15 16 17 18 19 20 21 22 23 24 25 26 27 28 29 30 31 32 33 34 35 36 37 38 39 40 41 42 43 44 45 46 47 48 49 50
000
ASUS44 KMEG 110810
RWRMEG
MEMPHIS CWA HOURLY WEATHER ROUNDUP
NATIONAL WEATHER SERVICE MEMPHIS TN
200 AM CST SUN DEC 11 2016

...WEST TENNESSEE...

CITY           SKY/WX    TMP DP  RH WIND       PRES   REMARKS
MEMPHIS INTL   CLOUDY    39  17  41 S12       30.26F WCI  32
NWS MEMPHIS      N/A     34 N/A N/A MISG        N/A
JACKSON        CLOUDY    38  17  42 S12G17    30.28F WCI  30
BOLIVAR        CLOUDY    32  19  59 SE6       30.29F WCI  26
LEXINGTON      PTCLDY    28  16  59 S3        30.29S
DYERSBURG      CLOUDY    37  18  44 S8        30.26F WCI  31
UNION CITY     CLOUDY    37  19  48 S5        30.26S WCI  34
PARIS          MOCLDY    34  16  47 S7        30.27F WCI  28
HUNTINGDON     MOCLDY    37  16  41 S10       30.27F WCI  30


...EASTERN ARKANSAS...

CITY           SKY/WX    TMP DP  RH WIND       PRES   REMARKS
JONESBORO      CLOUDY    38  25  59 S10       30.22F WCI  31
WEST MEMPHIS   CLOUDY    40  19  43 S18       30.24F WCI  31
BATESVILLE     CLOUDY    41  25  52 SE8       30.18F
NEWPORT        CLOUDY    40  27  59 S10       30.21  WCI  33
WALNUT RIDGE   CLOUDY    39  25  56 S10       30.20F WCI  32
BLYTHEVILLE    CLOUDY    39  21  48 S13       30.24F WCI  31
SEARCY         CLOUDY    42  27  55 S10       30.22F
STUTTGART      CLOUDY    43  27  52 S12       30.22S
PINE BLUFF     CLOUDY    45  26  47 S8        30.21F
MONTICELLO     CLOUDY    45  23  42 S8        30.23F


...NORTH MISSISSIPPI...

CITY           SKY/WX    TMP DP  RH WIND       PRES   REMARKS
TUPELO         CLOUDY    28  20  71 CALM      30.33S
OXFORD         CLOUDY    32  16  51 SE5       30.32S WCI  27
BATESVILLE     CLOUDY    30  23  76 SE3       30.31F
TUNICA         CLOUDY    36  23  60 SE14      30.26F WCI  27
CLARKSDALE     CLOUDY    39  23  52 SE10      30.28F WCI  32
CORINTH        CLOUDY    27  21  80 CALM      30.31F
GREENWOOD      MOCLDY    35  19  52 S7        30.31F WCI  29
COLUMBUS       CLOUDY    29  23  78 CALM      30.33S
STARKVILLE     CLOUDY    28  25  86 CALM      30.34S
GOLDEN TRIANGL CLOUDY    34  19  55 SE6       30.29S WCI  29


...SOUTHEAST MISSOURI...

CITY           SKY/WX    TMP DP  RH WIND       PRES   REMARKS
KENNETT        CLOUDY    39  27  60 S8        30.23S WCI  34
WEST PLAINS    CLOUDY    38  21  50 S14G21    30.10F WCI  30
POPLAR BLUFF   CLOUDY    38  24  57 S8        30.21F WCI  32
CAPE GIRARDEAU CLOUDY    37  21  52 S9        30.22F WCI  30


...NORTHWEST ALABAMA...

CITY           SKY/WX    TMP DP  RH WIND       PRES   REMARKS
MUSCLE SHOALS  CLOUDY    29  20  69 CALM      30.36S


...MIDDLE TENNESSEE...

CITY           SKY/WX    TMP DP  RH WIND       PRES   REMARKS
NASHVILLE      CLOUDY    26  18  71 S3        30.34F
CLARKSVILLE    CLOUDY    33  15  47 S8        30.29F WCI  26
COLUMBIA       CLEAR     23  23 100 CALM      30.30F


...WESTERN KENTUCKY...

CITY           SKY/WX    TMP DP  RH WIND       PRES   REMARKS
PADUCAH        CLOUDY    39  16  39 S9        30.25F WCI  33
FORT CAMPBELL  CLOUDY    34  15  46 S7        30.27F WCI  28


...CENTRAL ARKANSAS...

CITY           SKY/WX    TMP DP  RH WIND       PRES   REMARKS
LITTLE ROCK    CLOUDY    41  29  62 SE5       30.20F


SKY/WX REPORTED AS FAIR MEANS FEW OR NO CLOUDS BELOW
12 THOUSAND FEET.




USA.gov is the U.S. government's official web portal to all federal, state and local government web resources and services.